sat.trackr.live / text

‹ back to catalog

ECHOSTAR 11

NORAD 33207 · 2008-035A

PAYLOAD ACTIVE UNKNOWN

§ Identity

Operator
Country
US
Launch date
2008-07-16
Launch site
SEAL
Launch vehicle
Mass (kg)
RCS (m²)
32.41

Purposes: comms

External: N2YO · Heavens-Above · Gunter

§ Orbital elements

Epoch: 2026-05-25T03:13:18.316128Z

Period
1,436.09 min
Inclination
0.9476°
Eccentricity
0.0002472
Mean motion
1.00272274 rev/d
Perigee alt
35,776.0 km
Apogee alt
35,796.9 km
Semi-major
42,164.6 km
B*
0.0000e+0
RAAN
84.4162°
Arg perigee
323.2281°
Mean anomaly
133.6060°
Rev number
5,098

§ Raw data

ECHOSTAR 111 33207U 08035A   26145.13423977 -.00000060  00000+0  00000+0 0  99902 33207   0.9476  84.4162 0002472 323.2281 133.6060  1.00272274 50980

JSON: /api/v1/satellites/33207 · /tle

For live sub-satellite position, see the globe view (requires WebGL).

§ Visibility from observer

Set your observer location to see the next 7 days of passes ≥ 10°. The values pass through the URL so the page stays shareable.

No JS? Fill the form by hand. The geolocation button needs JavaScript.